Poplar Bluff, MO

7:42 PM CDT on September 20, 2019 (GMT -0500)
Poplar Bluff Municipal

Weather History for KPOF - May, 2019

Change the Weather History Date:

Wednesday, May 22, 2019

  Actual Average Record
Temperature  
Mean Temperature 71 °F -  
Max Temperature 84 °F 80 °F 97 °F (1925)
Min Temperature 60 °F 57 °F 41 °F (1929)
Cooling Degree Days 6    
Growing Degree Days 21 (Base 50)    
Moisture  
Dew Point 67 °F    
Average Humidity 89    
Maximum Humidity 100    
Minimum Humidity 74    
Precipitation  
Precipitation 0.90 in - - ()
Sea Level Pressure  
Sea Level Pressure 29.88 in    
Wind  
Wind Speed 9 mph (South)    
Max Wind Speed 15 mph    
Max Gust Speed 30 mph    
Visibility 8 miles    
Events Rain , Thunderstorm    
Averages and records for this station are not official NWS values.
T = Trace of Precipitation, MM = Missing Value Source: NWS Daily Summary

Daily Weather History Graph

Daily Weather History Graph

Search for Another Location

Airport or City:

Astronomy

May. 22, 2019 Rise Set
Actual Time 5:48 AM CDT 8:07 PM CDT
Civil Twilight 5:19 AM CDT 8:36 PM CDT
Nautical Twilight 4:43 AM CDT 9:13 PM CDT
Astronomical Twilight 4:03 AM CDT 9:52 PM CDT
Moon 11:50 PM CDT (5/22) 8:58 AM CDT (5/22)
Length of Visible Light 15h 17m
Length of Day
14h 18m
Waning Gibbous, 85% of the Moon is Illuminated
May 22
Waning Gibbous
May 26
Last Quarter
Jun 3
New
Jun 10
First Quarter
Jun 17
Full

Hourly Weather History & Observations

Time (CDT) Temp. Heat Index Dew Point Humidity Pressure Visibility Wind Dir Wind Speed Gust Speed Precip Events Conditions
12:00 AM 61.0 °F - 61.0 °F 100% 29.80 in 3.0 mi SSW 10.4 mph - 0.04 in Rain Rain
12:20 AM 61.0 °F - 61.0 °F 100% 29.80 in 1.8 mi SSW 11.5 mph - 0.18 in Rain , Thunderstorm Heavy Rain
12:28 AM 62.1 °F - 61.0 °F 96% 29.81 in 3.0 mi SSW 15.0 mph 21.9 mph 0.27 in Rain , Thunderstorm Rain
12:38 AM 61.0 °F - 61.0 °F 100% 29.82 in 2.0 mi SW 13.8 mph 29.9 mph 0.34 in Rain Heavy Rain
12:53 AM 61.0 °F - 61.0 °F 100% 29.81 in 2.0 mi SSW 13.8 mph 25.3 mph 0.48 in Rain , Thunderstorm Heavy Rain
1:07 AM 61.0 °F - 60.1 °F 97% 29.81 in 4.0 mi SSW 15.0 mph 21.9 mph 0.09 in Rain , Thunderstorm Rain
1:15 AM 61.0 °F - 60.1 °F 97% 29.82 in 2.5 mi SSW 15.0 mph 24.2 mph 0.14 in Rain Rain
1:44 AM 60.1 °F - 60.1 °F 100% 29.81 in 9.0 mi SSW 10.4 mph - 0.32 in Rain Light Rain
1:53 AM 61.0 °F - 60.1 °F 97% 29.80 in 10.0 mi SSW 11.5 mph - 0.32 in   Overcast
2:53 AM 61.0 °F - 61.0 °F 100% 29.80 in 5.0 mi SSE 9.2 mph - 0.06 in Rain Light Rain
3:53 AM 61.0 °F - 60.1 °F 97% 29.81 in 10.0 mi South 8.1 mph - 0.04 in   Overcast
4:53 AM 61.0 °F - 61.0 °F 100% 29.83 in 10.0 mi SSE 3.5 mph - N/A   Overcast
5:53 AM 61.0 °F - 61.0 °F 100% 29.83 in 10.0 mi Calm Calm - N/A   Mostly Cloudy
6:13 AM 61.0 °F - 61.0 °F 100% 29.84 in 10.0 mi SSE 5.8 mph - N/A   Mostly Cloudy
6:30 AM 63.0 °F - 62.1 °F 97% 29.85 in 10.0 mi SSE 5.8 mph - N/A   Overcast
6:46 AM 63.0 °F - 63.0 °F 100% 29.86 in 10.0 mi SSE 4.6 mph - N/A   Overcast
6:53 AM 63.0 °F - 63.0 °F 100% 29.85 in 10.0 mi SSE 4.6 mph - N/A   Overcast
7:53 AM 64.0 °F - 64.0 °F 100% 29.88 in 10.0 mi SE 3.5 mph - N/A   Overcast
8:53 AM 66.0 °F - 64.9 °F 96% 29.91 in 10.0 mi SSE 4.6 mph - N/A   Overcast
9:53 AM 70.0 °F - 66.9 °F 90% 29.91 in 10.0 mi South 6.9 mph - N/A   Mostly Cloudy
10:02 AM 70.0 °F - 66.0 °F 87% 29.92 in 10.0 mi SSW 9.2 mph - N/A   Scattered Clouds
10:53 AM 73.0 °F - 66.9 °F 81% 29.94 in 10.0 mi South 9.2 mph - N/A   Scattered Clouds
11:14 AM 73.0 °F - 68.0 °F 84% 29.94 in 10.0 mi South 8.1 mph - N/A   Mostly Cloudy
11:53 AM 73.9 °F - 69.1 °F 85% 29.94 in 10.0 mi SSW 10.4 mph - N/A   Overcast
12:53 PM 75.0 °F - 70.0 °F 84% 29.94 in 10.0 mi South 8.1 mph - N/A   Overcast
1:51 PM 78.8 °F - 71.6 °F 78% 29.94 in 10.0 mi SSW 8.1 mph - N/A   Overcast
1:53 PM 78.1 °F - 72.0 °F 81% 29.93 in 10.0 mi SW 5.8 mph - N/A   Overcast
2:01 PM 78.1 °F - 72.0 °F 81% 29.94 in 10.0 mi SSW 6.9 mph - N/A   Overcast
2:53 PM 80.1 °F 84.2 °F 73.0 °F 79% 29.92 in 10.0 mi SSW 11.5 mph - N/A   Mostly Cloudy
3:33 PM 80.1 °F 84.2 °F 73.0 °F 79% 29.93 in 10.0 mi South 9.2 mph - N/A   Overcast
3:53 PM 81.0 °F 86.2 °F 73.9 °F 79% 29.91 in 10.0 mi South 11.5 mph - N/A   Mostly Cloudy
4:36 PM 82.0 °F 87.9 °F 73.9 °F 76% 29.92 in 10.0 mi South 9.2 mph - N/A   Mostly Cloudy
4:53 PM 82.9 °F 90.2 °F 75.0 °F 77% 29.91 in 10.0 mi South 9.2 mph - N/A   Mostly Cloudy
5:53 PM 82.9 °F 90.2 °F 75.0 °F 77% 29.91 in 10.0 mi South 8.1 mph - N/A   Clear
6:53 PM 82.9 °F 89.4 °F 73.9 °F 74% 29.89 in 9.0 mi South 9.2 mph - N/A   Clear
7:53 PM 82.0 °F 87.9 °F 73.9 °F 76% 29.90 in 10.0 mi South 8.1 mph - N/A   Clear
8:53 PM 80.1 °F 84.5 °F 73.9 °F 81% 29.91 in 10.0 mi South 8.1 mph - N/A   Clear
9:53 PM 79.0 °F - 73.0 °F 82% 29.93 in 10.0 mi South 8.1 mph - N/A   Unknown
10:53 PM 78.1 °F - 73.0 °F 84% 29.95 in 10.0 mi South 5.8 mph - N/A   Unknown
11:53 PM 77.0 °F - 73.0 °F 88% 29.97 in 10.0 mi Calm Calm - N/A   Clear